TimeEST,TemperatureF,Dew PointF,Humidity,Sea Level PressureIn,VisibilityMPH,Wind Direction,Wind SpeedMPH,Gust SpeedMPH,PrecipitationIn,Events,Conditions,WindDirDegrees,DateUTC
12:15 AM,13.1,-1.5,52,30.33,10.0,West,4.6,-,N/A,,Overcast,280,2013-01-23 05:15:00
12:35 AM,13.1,-1.5,52,30.33,10.0,West,6.9,-,N/A,,Overcast,270,2013-01-23 05:35:00
12:55 AM,13.1,-1.1,53,30.32,10.0,WSW,4.6,-,N/A,,Overcast,250,2013-01-23 05:55:00
1:15 AM,13.1,-1.3,53,30.32,10.0,WSW,4.6,-,N/A,,Overcast,250,2013-01-23 06:15:00
1:35 AM,13.5,-0.6,54,30.33,10.0,West,5.8,-,N/A,,Overcast,280,2013-01-23 06:35:00
1:55 AM,14.0,-0.2,53,30.33,10.0,West,5.8,-,N/A,,Overcast,270,2013-01-23 06:55:00
2:15 AM,14.0,-2.0,49,30.32,10.0,West,9.2,-,N/A,,Overcast,270,2013-01-23 07:15:00
2:35 AM,13.8,-2.2,49,30.32,10.0,WSW,9.2,-,N/A,,Overcast,250,2013-01-23 07:35:00
2:55 AM,12.6,-0.2,57,30.32,10.0,Calm,Calm,-,N/A,,Mostly Cloudy,0,2013-01-23 07:55:00
3:15 AM,11.8,-0.8,57,30.32,10.0,West,3.5,-,N/A,,Scattered Clouds,270,2013-01-23 08:15:00
3:35 AM,11.5,-1.3,57,30.31,10.0,Calm,Calm,-,N/A,,Clear,0,2013-01-23 08:35:00
3:55 AM,11.3,-0.4,59,30.31,10.0,Calm,Calm,-,N/A,,Clear,0,2013-01-23 08:55:00
4:15 AM,10.9,0.5,63,30.31,10.0,Calm,Calm,-,N/A,,Clear,0,2013-01-23 09:15:00
4:35 AM,10.8,-0.0,62,30.31,10.0,WSW,3.5,-,N/A,,Mostly Cloudy,250,2013-01-23 09:35:00
4:55 AM,11.3,0.3,61,30.30,10.0,Calm,Calm,-,N/A,,Overcast,0,2013-01-23 09:55:00
5:15 AM,11.7,0.9,62,30.30,10.0,Calm,Calm,-,N/A,,Overcast,0,2013-01-23 10:15:00
5:35 AM,11.8,0.9,61,30.30,10.0,WSW,4.6,-,N/A,,Overcast,250,2013-01-23 10:35:00
5:55 AM,12.2,1.4,62,30.30,10.0,WSW,3.5,-,N/A,,Mostly Cloudy,250,2013-01-23 10:55:00
6:15 AM,12.6,1.0,60,30.30,10.0,WSW,4.6,-,N/A,,Overcast,250,2013-01-23 11:15:00
6:35 AM,13.1,0.5,57,30.30,10.0,West,6.9,-,N/A,,Overcast,260,2013-01-23 11:35:00
6:55 AM,13.1,0.3,57,30.30,10.0,West,6.9,-,N/A,,Overcast,260,2013-01-23 11:55:00
7:15 AM,13.1,-0.8,54,30.30,10.0,West,5.8,-,N/A,,Overcast,260,2013-01-23 12:15:00
7:35 AM,13.5,-0.2,55,30.30,10.0,West,6.9,-,N/A,,Overcast,260,2013-01-23 12:35:00
7:55 AM,13.8,0.5,56,30.30,10.0,WSW,5.8,-,N/A,,Overcast,240,2013-01-23 12:55:00
8:15 AM,14.0,0.3,55,30.30,10.0,WSW,6.9,-,N/A,,Overcast,240,2013-01-23 13:15:00
8:35 AM,14.0,0.1,54,30.29,10.0,WSW,6.9,-,N/A,,Overcast,240,2013-01-23 13:35:00
8:55 AM,14.5,0.3,53,30.29,10.0,SW,5.8,-,N/A,,Overcast,230,2013-01-23 13:55:00
9:15 AM,14.7,-0.0,52,30.28,10.0,SW,6.9,-,N/A,,Overcast,230,2013-01-23 14:15:00
9:35 AM,14.9,-0.0,52,30.28,10.0,SW,6.9,-,N/A,,Overcast,230,2013-01-23 14:35:00
9:55 AM,15.6,0.1,51,30.29,10.0,SW,6.9,-,N/A,,Overcast,230,2013-01-23 14:55:00
10:15 AM,15.6,-0.6,49,30.29,10.0,WSW,8.1,-,N/A,,Overcast,240,2013-01-23 15:15:00
10:35 AM,16.3,-0.4,48,30.29,10.0,WSW,5.8,-,N/A,,Overcast,240,2013-01-23 15:35:00
10:55 AM,16.7,0.5,49,30.28,10.0,SSW,9.2,-,N/A,,Overcast,200,2013-01-23 15:55:00
11:15 AM,17.2,-0.2,46,30.28,10.0,SSW,9.2,-,N/A,,Overcast,210,2013-01-23 16:15:00
11:35 AM,17.6,-0.9,44,30.28,10.0,SSW,9.2,-,N/A,,Overcast,210,2013-01-23 16:35:00
11:55 AM,18.3,-0.2,44,30.27,10.0,SSW,9.2,-,N/A,,Overcast,210,2013-01-23 16:55:00
12:15 PM,19.0,0.7,45,30.25,10.0,SW,10.4,-,N/A,,Overcast,220,2013-01-23 17:15:00
12:35 PM,19.4,1.4,46,30.23,10.0,SW,10.4,-,N/A,,Overcast,220,2013-01-23 17:35:00
12:55 PM,19.6,2.3,47,30.22,10.0,SW,9.2,-,N/A,,Overcast,220,2013-01-23 17:55:00
1:15 PM,19.9,2.7,47,30.21,10.0,WSW,10.4,-,N/A,,Overcast,240,2013-01-23 18:15:00
1:35 PM,20.3,1.4,44,30.20,10.0,WSW,12.7,-,N/A,,Overcast,240,2013-01-23 18:35:00
1:55 PM,20.8,0.5,41,30.18,10.0,SW,11.5,-,N/A,,Overcast,220,2013-01-23 18:55:00
2:15 PM,21.0,1.2,42,30.16,10.0,SW,8.1,-,N/A,,Overcast,230,2013-01-23 19:15:00
2:35 PM,21.2,1.9,43,30.16,10.0,SSW,6.9,-,N/A,,Overcast,210,2013-01-23 19:35:00
2:55 PM,21.9,3.7,46,30.15,10.0,WSW,8.1,-,N/A,,Overcast,240,2013-01-23 19:55:00
3:15 PM,22.1,4.8,48,30.14,10.0,WSW,8.1,-,N/A,,Overcast,240,2013-01-23 20:15:00
3:35 PM,22.1,4.8,48,30.14,10.0,SW,9.2,-,N/A,,Overcast,230,2013-01-23 20:35:00
3:55 PM,22.1,5.2,48,30.14,10.0,WSW,9.2,-,N/A,,Overcast,240,2013-01-23 20:55:00
4:15 PM,22.1,5.7,49,30.13,10.0,WSW,11.5,-,N/A,,Overcast,240,2013-01-23 21:15:00
4:35 PM,22.1,6.1,50,30.13,10.0,WSW,8.1,-,N/A,,Overcast,240,2013-01-23 21:35:00
4:55 PM,22.1,6.3,51,30.13,10.0,West,6.9,-,N/A,,Overcast,260,2013-01-23 21:55:00
5:15 PM,22.1,6.8,52,30.12,10.0,WSW,4.6,-,N/A,,Overcast,250,2013-01-23 22:15:00
5:35 PM,22.1,7.5,54,30.11,10.0,WSW,4.6,-,N/A,,Overcast,240,2013-01-23 22:35:00
5:55 PM,22.1,7.3,53,30.11,10.0,WSW,3.5,-,N/A,,Overcast,250,2013-01-23 22:55:00
6:15 PM,22.1,7.7,54,30.11,10.0,SW,3.5,-,N/A,,Overcast,230,2013-01-23 23:15:00
6:35 PM,22.1,7.9,54,30.11,10.0,SW,3.5,-,N/A,,Overcast,220,2013-01-23 23:35:00
6:55 PM,22.1,8.6,56,30.11,10.0,Calm,Calm,-,N/A,,Overcast,0,2013-01-23 23:55:00
7:15 PM,22.1,8.4,56,30.10,10.0,Calm,Calm,-,N/A,,Overcast,0,2013-01-24 00:15:00
7:35 PM,22.1,8.8,57,30.10,10.0,Calm,Calm,-,N/A,,Overcast,0,2013-01-24 00:35:00
7:55 PM,22.1,9.0,57,30.10,10.0,Calm,Calm,-,N/A,,Overcast,0,2013-01-24 00:55:00
8:15 PM,22.1,8.8,57,30.10,10.0,Calm,Calm,-,N/A,,Overcast,0,2013-01-24 01:15:00
8:35 PM,21.7,10.0,61,30.09,10.0,Calm,Calm,-,N/A,,Overcast,0,2013-01-24 01:35:00
8:55 PM,20.8,9.5,62,30.10,10.0,Calm,Calm,-,N/A,,Mostly Cloudy,0,2013-01-24 01:55:00
9:15 PM,21.2,10.2,63,30.10,10.0,Calm,Calm,-,N/A,,Overcast,0,2013-01-24 02:15:00
9:35 PM,21.2,10.8,64,30.10,10.0,Calm,Calm,-,N/A,,Overcast,0,2013-01-24 02:35:00
9:55 PM,21.2,10.8,64,30.09,10.0,Calm,Calm,-,N/A,,Overcast,0,2013-01-24 02:55:00
10:15 PM,21.0,11.3,66,30.10,10.0,WSW,3.5,-,N/A,,Overcast,250,2013-01-24 03:15:00
10:35 PM,21.9,11.8,65,30.12,10.0,NNW,6.9,-,N/A,,Overcast,330,2013-01-24 03:35:00
10:55 PM,22.6,11.3,62,30.13,10.0,NW,10.4,-,N/A,,Overcast,320,2013-01-24 03:55:00
11:15 PM,22.8,10.9,60,30.14,10.0,NW,13.8,20.7,N/A,,Overcast,320,2013-01-24 04:15:00
11:35 PM,22.1,10.6,61,30.14,10.0,NNW,16.1,23.0,N/A,,Mostly Cloudy,330,2013-01-24 04:35:00
11:55 PM,21.2,9.0,59,30.16,10.0,NNW,13.8,-,N/A,,Overcast,340,2013-01-24 04:55:00